| time (UTC) | temp F | wind direction | speed MPH | gust MPH | rain 1hr in | rain 24hr in | rain mn in | humidity % | barometer mb |
| 20260905194603 | 69 | 0 | 1.0 | 5.0 | 0.00 | 0.03 | 0.03 | 73 | 1013.5 |
| 20260905193101 | 68 | 306 | 1.0 | 4.0 | 0.00 | 0.03 | 0.03 | 78 | 1013.5 |
| 20260905191613 | 68 | 83 | 1.0 | 5.0 | 0.03 | 0.03 | 0.03 | 80 | 1013.8 |
| 20260905184610 | 68 | 360 | 1.0 | 2.0 | 0.03 | 0.03 | 0.03 | 82 | 1013.5 |
| 20260905183103 | 67 | 360 | 0.0 | 3.0 | 0.03 | 0.03 | 0.03 | 76 | 1013.6 |
| 20260905181606 | 70 | 53 | 4.0 | 10.0 | 0.00 | 0.00 | 0.00 | 72 | 1013.7 |
| 20260905174617 | 73 | 71 | 1.0 | 4.0 | 0.00 | 0.00 | 0.00 | 63 | 1013.4 |
| 20260905173112 | 71 | 0 | 0.0 | 3.0 | 0.00 | 0.00 | 0.00 | 65 | 1013.4 |
| 20260905171602 | 71 | 0 | 0.0 | 2.0 | 0.00 | 0.00 | 0.00 | 67 | 1013.5 |
| 20260905170059 | 71 | 360 | 1.0 | 3.0 | 0.00 | 0.00 | 0.00 | 67 | 1013.5 |
| 20260905164635 | 71 | 284 | 1.0 | 4.0 | 0.00 | 0.00 | 0.00 | 68 | 1013.6 |
| 20260905163107 | 70 | 263 | 1.0 | 7.0 | 0.00 | 0.00 | 0.00 | 70 | 1013.8 |
| 20260905161600 | 70 | 352 | 1.0 | 9.0 | 0.00 | 0.00 | 0.00 | 70 | 1013.9 |
| 20260905160100 | 71 | 304 | 1.0 | 5.0 | 0.00 | 0.00 | 0.00 | 66 | 1013.8 |
| 20260905154605 | 70 | 352 | 2.0 | 4.0 | 0.00 | 0.00 | 0.00 | 67 | 1013.7 |
| 20260905153102 | 69 | 55 | 1.0 | 3.0 | 0.00 | 0.00 | 0.00 | 69 | 1013.9 |
| 20260905151609 | 68 | 119 | 0.0 | 3.0 | 0.00 | 0.00 | 0.00 | 72 | 1013.9 |
| 20260905150105 | 67 | 11 | 0.0 | 3.0 | 0.00 | 0.00 | 0.00 | 75 | 1013.9 |
| 20260905144601 | 69 | 0 | 0.0 | 3.0 | 0.00 | 0.00 | 0.00 | 71 | 1013.9 |
| 20260905143100 | 68 | 351 | 3.0 | 6.0 | 0.00 | 0.00 | 0.00 | 73 | 1013.9 |
| 20260905141612 | 67 | 60 | 1.0 | 4.0 | 0.00 | 0.00 | 0.00 | 74 | 1014.1 |
| 20260905140503 | 67 | 18 | 0.0 | 3.0 | 0.00 | 0.00 | 0.00 | 77 | 1013.8 |
| 20260905134610 | 66 | 333 | 2.0 | 4.0 | 0.00 | 0.00 | 0.00 | 79 | 1013.8 |
| 20260905133100 | 65 | 9 | 0.0 | 4.0 | 0.00 | 0.00 | 0.00 | 80 | 1013.7 |
| 20260905131559 | 64 | 54 | 0.0 | 3.0 | 0.00 | 0.00 | 0.00 | 82 | 1013.8 |
| 20260905130113 | 63 | 338 | 1.0 | 3.0 | 0.00 | 0.00 | 0.00 | 83 | 1013.6 |
| 20260905124601 | 63 | 323 | 1.0 | 4.0 | 0.00 | 0.00 | 0.00 | 84 | 1013.6 |
| 20260905123101 | 62 | 302 | 1.0 | 3.0 | 0.00 | 0.00 | 0.00 | 85 | 1013.3 |
| 20260905121602 | 62 | 322 | 0.0 | 3.0 | 0.00 | 0.00 | 0.00 | 86 | 1013.2 |
| 20260905114626 | 61 | 360 | 1.0 | 5.0 | 0.00 | 0.00 | 0.00 | 86 | 1013.2 |
| 20260905113102 | 61 | 31 | 0.0 | 4.0 | 0.00 | 0.00 | 0.00 | 87 | 1012.9 |
| 20260905111601 | 61 | 0 | 1.0 | 4.0 | 0.00 | 0.00 | 0.00 | 87 | 1012.7 |
| 20260905110059 | 60 | 26 | 2.0 | 5.0 | 0.00 | 0.00 | 0.00 | 88 | 1012.5 |
| 20260905104605 | 60 | 23 | 0.0 | 2.0 | 0.00 | 0.00 | 0.00 | 88 | 1012.4 |
| 20260905103101 | 60 | 340 | 0.0 | 2.0 | 0.00 | 0.00 | 0.00 | 88 | 1012.3 |
| 20260905101600 | 60 | 327 | 1.0 | 3.0 | 0.00 | 0.00 | 0.00 | 88 | 1012.1 |
| 20260905100113 | 60 | 0 | 0.0 | 2.0 | 0.00 | 0.00 | 0.00 | 87 | 1012.1 |
| 20260905094624 | 60 | 333 | 1.0 | 3.0 | 0.00 | 0.00 | 0.00 | 87 | 1012.1 |
| 20260905093102 | 60 | 238 | 0.0 | 2.0 | 0.00 | 0.00 | 0.00 | 87 | 1012.1 |
| 20260905091615 | 60 | 0 | 0.0 | 2.0 | 0.00 | 0.00 | 0.00 | 87 | 1012.1 |
| 20260905090057 | 60 | 0 | 1.0 | 4.0 | 0.00 | 0.00 | 0.00 | 87 | 1011.9 |
| 20260905084603 | 61 | 286 | 1.0 | 4.0 | 0.00 | 0.00 | 0.00 | 86 | 1011.7 |
| 20260905083102 | 61 | 321 | 1.0 | 4.0 | 0.00 | 0.00 | 0.00 | 86 | 1011.7 |
| 20260905081558 | 61 | 344 | 1.0 | 4.0 | 0.00 | 0.00 | 0.00 | 85 | 1011.7 |
| 20260905080101 | 61 | 0 | 0.0 | 3.0 | 0.00 | 0.00 | 0.00 | 85 | 1011.7 |
| 20260905074605 | 62 | 286 | 1.0 | 3.0 | 0.00 | 0.00 | 0.00 | 84 | 1011.7 |
| 20260905073129 | 62 | 333 | 2.0 | 8.0 | 0.00 | 0.00 | 0.00 | 84 | 1011.5 |
| 20260905071602 | 62 | 269 | 0.0 | 2.0 | 0.00 | 0.00 | 0.00 | 85 | 1011.5 |
| 20260905070104 | 62 | 0 | 1.0 | 4.0 | 0.00 | 0.00 | 0.00 | 84 | 1011.6 |
| 20260905064615 | 62 | 0 | 0.0 | 3.0 | 0.00 | 0.00 | 0.00 | 83 | 1011.5 |
| 20260905063119 | 63 | 327 | 1.0 | 6.0 | 0.00 | 0.00 | 0.00 | 83 | 1011.4 |
| 20260905061619 | 63 | 272 | 0.0 | 4.0 | 0.00 | 0.00 | 0.00 | 83 | 1011.6 |
| 20260905060104 | 63 | 265 | 1.0 | 4.0 | 0.00 | 0.00 | 0.00 | 82 | 1011.5 |
| 20260905054604 | 63 | 324 | 1.0 | 5.0 | 0.00 | 0.00 | 0.00 | 82 | 1011.5 |
| 20260905053105 | 63 | 259 | 1.0 | 4.0 | 0.00 | 0.00 | 0.00 | 82 | 1011.5 |
| 20260905051611 | 64 | 290 | 2.0 | 5.0 | 0.00 | 0.00 | 0.00 | 82 | 1011.6 |
| 20260905050107 | 64 | 314 | 1.0 | 5.0 | 0.00 | 0.00 | 0.00 | 81 | 1011.7 |
| 20260905044603 | 64 | 300 | 0.0 | 5.0 | 0.00 | 0.00 | 0.00 | 81 | 1011.7 |
| 20260905043105 | 65 | 254 | 2.0 | 8.0 | 0.00 | 0.00 | 0.00 | 80 | 1011.7 |
| 20260905041604 | 65 | 0 | 1.0 | 6.0 | 0.00 | 0.00 | 0.00 | 79 | 1011.8 |
| 20260905040103 | 65 | 273 | 1.0 | 7.0 | 0.00 | 0.00 | 0.00 | 79 | 1011.7 |
| 20260905034613 | 66 | 250 | 1.0 | 9.0 | 0.00 | 0.00 | 0.00 | 79 | 1011.6 |
| 20260905033111 | 66 | 244 | 1.0 | 4.0 | 0.00 | 0.00 | 0.00 | 79 | 1011.7 |
| 20260905031626 | 66 | 271 | 0.0 | 8.0 | 0.00 | 0.00 | 0.00 | 79 | 1011.8 |
| 20260905030120 | 66 | 278 | 0.0 | 3.0 | 0.00 | 0.00 | 0.00 | 79 | 1011.8 |
| 20260905024611 | 66 | 293 | 1.0 | 3.0 | 0.00 | 0.00 | 0.00 | 79 | 1012.0 |
| 20260905023137 | 66 | 296 | 0.0 | 3.0 | 0.00 | 0.00 | 0.00 | 79 | 1012.0 |
| 20260905021608 | 67 | 292 | 1.0 | 6.0 | 0.00 | 0.00 | 0.00 | 78 | 1012.2 |
| 20260905020108 | 67 | 308 | 1.0 | 5.0 | 0.00 | 0.00 | 0.00 | 77 | 1012.3 |
| 20260905014616 | 67 | 299 | 1.0 | 6.0 | 0.00 | 0.00 | 0.00 | 77 | 1012.4 |
| 20260905013057 | 67 | 334 | 2.0 | 5.0 | 0.00 | 0.00 | 0.00 | 75 | 1012.4 |
| 20260905011607 | 68 | 305 | 2.0 | 4.0 | 0.00 | 0.00 | 0.00 | 74 | 1012.3 |
| 20260905010107 | 67 | 304 | 1.0 | 3.0 | 0.00 | 0.00 | 0.00 | 74 | 1012.2 |
| 20260905004601 | 68 | 296 | 2.0 | 5.0 | 0.00 | 0.00 | 0.00 | 73 | 1012.0 |
| 20260905003058 | 68 | 292 | 1.0 | 4.0 | 0.00 | 0.00 | 0.00 | 72 | 1011.8 |
| 20260905001558 | 68 | 252 | 1.0 | 5.0 | 0.00 | 0.00 | 0.00 | 71 | 1011.7 |
| 20260905000119 | 68 | 298 | 1.0 | 8.0 | 0.00 | 0.00 | 0.00 | 70 | 1011.6 |
| 20260904234601 | 69 | 268 | 2.0 | 8.0 | 0.00 | 0.00 | 0.00 | 68 | 1011.4 |
| 20260904233100 | 69 | 286 | 1.0 | 7.0 | 0.00 | 0.00 | 0.00 | 67 | 1011.4 |
| 20260904231602 | 69 | 323 | 1.0 | 5.0 | 0.00 | 0.00 | 0.00 | 68 | 1011.5 |
| 20260904230105 | 70 | 293 | 3.0 | 9.0 | 0.00 | 0.00 | 0.00 | 67 | 1011.6 |
| 20260904224606 | 70 | 267 | 3.0 | 8.0 | 0.00 | 0.00 | 0.00 | 68 | 1011.6 |
| 20260904223058 | 70 | 301 | 2.0 | 11.0 | 0.00 | 0.00 | 0.00 | 69 | 1011.8 |
| 20260904221605 | 71 | 17 | 2.0 | 10.0 | 0.00 | 0.00 | 0.00 | 67 | 1012.0 |
| 20260904220119 | 71 | 24 | 4.0 | 11.0 | 0.00 | 0.00 | 0.00 | 67 | 1011.7 |
| 20260904214601 | 72 | 279 | 2.0 | 9.0 | 0.00 | 0.00 | 0.00 | 66 | 1011.6 |
| 20260904213107 | 72 | 296 | 2.0 | 9.0 | 0.00 | 0.00 | 0.00 | 65 | 1011.4 |
| 20260904211606 | 73 | 311 | 2.0 | 9.0 | 0.00 | 0.00 | 0.00 | 65 | 1011.6 |
| 20260904210119 | 73 | 287 | 2.0 | 10.0 | 0.00 | 0.00 | 0.00 | 65 | 1011.6 |
| 20260904204604 | 73 | 323 | 2.0 | 10.0 | 0.00 | 0.00 | 0.00 | 63 | 1011.6 |
| 20260904203102 | 74 | 305 | 2.0 | 9.0 | 0.00 | 0.00 | 0.00 | 64 | 1011.6 |
| 20260904201559 | 73 | 258 | 3.0 | 10.0 | 0.00 | 0.00 | 0.00 | 62 | 1011.7 |